Regional Weather Roundup
Issued by NWS

Home | Current Version | Previous Version | Text Only | Print | Product List | Glossary Off
Versions: 1 2 3 4 5 6 7 8 9 10 11 12 13 14 15 16 17 18 19 20 21 22 23 24 25 26 27 28 29 30 31 32 33 34 35 36 37 38 39 40 41 42 43 44 45 46 47 48 49 50

000
ASUS43 KMPX 210510
RWRMN
WEATHER ROUNDUP FOR MINNESOTA
NATIONAL WEATHER SERVICE TWIN CITIES/CHANHASSEN MN
1100 PM CST FRI JAN 20 2017


NOTE: "FAIR" INDICATES FEW OR NO CLOUDS BELOW 12,000 FEET WITH NO
SIGNIFICANT WEATHER AND/OR OBSTRUCTIONS TO VISIBILITY. N/A MEANS
CURRENT SKY AND/OR WEATHER CONDITIONS ARE NOT AVAILABLE.

MNZ060>063-068>070-210600-
   Twin Cities Metro

CITY           SKY/WX    TMP DP  RH WIND       PRES   REMARKS
TWIN CITIES    CLOUDY    35  34  96 E8        29.54F FOG     WCI  29
ST PAUL        CLOUDY    35  35 100 E8        29.56F FOG     WCI  29
CRYSTAL        CLOUDY    36  33  89 SE6       29.53F FOG
BLAINE         CLOUDY    37  37 100 SE6       29.54S FOG
LAKEVILLE      FOG       32  32 100 E6        29.53F VSB 1/2 WCI  26
EDEN PRAIRIE   CLOUDY    36  34  92 E6        29.52F FOG
SOUTH ST PAUL  CLOUDY    36  36 100 SE5       29.55S FOG
LAKE ELMO      FOG       36  36 100 SE3       29.56S VSB 1/2
$$
MNZ001>005-007-008-013>017-022>024-027-028-210600-
   Northwest Minnesota

CITY           SKY/WX    TMP DP  RH WIND       PRES   REMARKS
BEMIDJI        CLOUDY    33  33 100 SE8       29.49S FOG     WCI  26
HALLOCK        DRIZZLE   36  34  93 SE9       29.45S
ROSEAU         CLOUDY    36  30  80 SE7       29.48F HAZE
WARROAD        CLOUDY    36  30  80 SE7       29.50S
THIEF RVR FALL CLOUDY    34  33  96 SE16      29.46F WCI  24
CROOKSTON      CLOUDY    36  34  93 SE12      29.46S
FOSSTON        CLOUDY    34  32  93 SE10      29.47S WCI  26
DETROIT LAKES  DRIZZLE   34  34 100 SE13      29.46S WCI  25
MOORHEAD       CLOUDY    36  34  93 SE9       29.44S
PARK RAPIDS    CLOUDY    34  32  92 SE10      29.48S FOG     WCI  26
MAHNOMEN       CLOUDY    34  33  95 SE9       29.45S WCI  27
$$
MNZ006-009>011-018-025>026-210600-
   North Central Minnesota

CITY           SKY/WX    TMP DP  RH WIND       PRES   REMARKS
BAUDETTE       CLOUDY    34  33  96 SE9       29.51S WCI  27
FLAG ISLAND    MIX PCPN  34  32  93 SE7       29.51S WCI  28
INTL FALLS     LGT SNOW  33  31  92 SE9       29.54F FOG     WCI  25
WASKISH        CLOUDY    36  34  93 SE7       29.51S
BIG FORK       CLOUDY    36  34  93 SE5       29.53S
LONGVILLE      CLOUDY    34  34 100 E3        29.51S FOG
GRAND RAPIDS   FOG      N/A N/A N/A SE8       29.55S VSB 3/4
CRANE LAKE     RAIN      34  34 100 CALM      29.58F
ORR            LGT SNOW  32  30  93 CALM      29.53S
COOK           LGT SNOW  32  32 100 CALM      29.56S
WALKER         CLOUDY    33  32  99 SE5       29.50S FOG     WCI  28
$$
MNZ012-019>021-037-210600-
   Northeast Minnesota

CITY           SKY/WX    TMP DP  RH WIND       PRES   REMARKS
DULUTH         DRZL/FOG  34  34 100 SE12      29.57R VSB 1/16WCI  25
ELY            LGT SNOW  34  32  93 CALM      29.57S
HIBBING        CLOUDY    32  32 100 SE8       29.54F WCI  25
EVELETH        MIX PCPN  32  32  99 E3        29.57S
DULUTH HARBOR  CLOUDY    34  34 100 CALM      29.61R FOG
TWO HARBORS    DRZL/FOG  37  34  87 E8        29.58R VSB 1/4
SILVER BAY     DRZL/FOG  36  36 100 E6        29.59R VSB 1/4
GRAND MARAIS     N/A     35  34  96 NE7       29.63F WCI  29
G MARAIS ARPRT MIX PCPN  30  28  93 E6        29.59F VSB 3/4 WCI  24
$$
MNZ029>031-032-039>041-046>048-054>057-064-210600-
   West Central Minnesota

CITY           SKY/WX    TMP DP  RH WIND       PRES   REMARKS
FERGUS FALLS   CLOUDY    36  36 100 SE12      29.48S
WHEATON        CLOUDY    43  43 100 SE9       29.44S FOG
MORRIS         CLOUDY    34  34 100 SE14      29.44S FOG     WCI  24
ALEXANDRIA     CLOUDY    34  33  96 SE10      29.47F FOG     WCI  26
ELBOW LAKE     CLOUDY    34  34 100 SE12      29.45S FOG     WCI  25
WADENA         CLOUDY    34  34 100 SE8       29.48S FOG     WCI  27
GLENWOOD       MIX PCPN  34  34 100 E10       29.48S VSB 1   WCI  26
APPLETON       CLOUDY    36  34  93 SE9       29.45S FOG
BENSON         CLOUDY    37  34  87 S12       29.47S
ORTONVILLE     CLOUDY    34  32  93 SE14      29.42S FOG     WCI  24
MADISON        CLOUDY    37  37 100 SE13      29.44S FOG
WILLMAR        CLOUDY    36  36 100 SE12      29.49S FOG
$$
MNZ033>034-036-042>043-049>051-058-059-210600-
   Central Minnesota

CITY           SKY/WX    TMP DP  RH WIND       PRES   REMARKS
ST CLOUD       FOG       34  34 100 SE6       29.52F VSB 3/4 WCI  29
SAUK CENTRE    LGT RAIN  33  33 100 E8        29.49F WCI  26
PAYNESVILLE    CLOUDY    34  34 100 SE8       29.50S FOG     WCI  27
AITKIN         CLOUDY    36  34  93 SE3       29.52F FOG
PINE RIVER     CLOUDY    34  34 100 SE7       29.56R FOG     WCI  28
BRAINERD       CLOUDY    34  33  96 SE7       29.52F FOG     WCI  28
STAPLES        CLOUDY    34  34 100 SE3       29.50S FOG
LONG PRAIRIE   MIX PCPN  32  32 100 E8        29.50S WCI  25
LITTLE FALLS   MIX PCPN  34  32  93 SE6       29.53R WCI  29
LITCHFIELD     FOG       36  34  93 E7        29.51R VSB 1/2
BUFFALO        FOG       34  33  96 E6        29.53F VSB 1   WCI  29
MAPLE LAKE     FOG       35  35 100 MISG      29.53S VSB 1/2
HUTCHINSON     DRZL/FOG  34  35 100 E8        29.52R VSB 1/2 WCI  28
$$
MNZ037-044-045-052-053-210600-
   East Central Minnesota

CITY           SKY/WX    TMP DP  RH WIND       PRES   REMARKS
PRINCETON      FOG       36  34  93 E6        29.54F VSB 1/2
MORA           FOG       34  32  93 SE3       29.57S VSB 1/2
CAMBRIDGE      DRZL/FOG  37  36  93 CALM      29.53F VSB 3/4
RUSH CITY      CLOUDY    34  34 100 SE5       29.56F FOG     WCI  30
MOOSE LAKE     CLOUDY    34  34 100 SE3       29.55S FOG
HINCKLEY       CLOUDY    34  34 100 E3        29.57S FOG
CLOQUET        FOG       34  34 100 SE3       29.57R VSB 1/4
MCGREGOR       CLOUDY    34  34 100 SE6       29.55S VSB 3/4 WCI  29
$$
MNZ071>073-080-081-089-090-097-098-210600-
   Southwest Minnesota

CITY           SKY/WX    TMP DP  RH WIND       PRES   REMARKS
MONTEVIDEO     CLOUDY    34  34 100 S12       29.47S FOG     WCI  25
GRANITE FALLS  CLOUDY    36  35  97 SE10      29.48S FOG
CANBY          CLOUDY    35  35  99 CALM      29.44S FOG
MARSHALL       CLOUDY    35  34  96 SE8       29.45S FOG     WCI  29
REDWOOD FALLS  FOG       34  33  96 SE9       29.47F VSB 1   WCI  27
OLIVIA         CLOUDY    34  34 100 SE9       29.48S FOG     WCI  26
PIPESTONE      FOG       36  36 100 SE9       29.42S VSB 1/4
WINDOM         FOG       36  34  93 SE9       29.46F VSB 3/4
WORTHINGTON    FOG       34  34 100 SE9       29.45F VSB 1/2 WCI  27
JACKSON        FOG       32  32 100 SE7       29.47F VSB 1/2 WCI  26
TRACY          CLOUDY    36  36 100 S9        29.45S
SLAYTON        DRZL/FOG  33  33 100 SE9       29.45F VSB 1/2 WCI  26
$$
MNZ065>067-074>077-082>085-091>093-210600-
   South Central Minnesota

CITY           SKY/WX    TMP DP  RH WIND       PRES   REMARKS
MANKATO        CLOUDY    34  34 100 SE12      29.51S FOG     WCI  25
NEW ULM        CLOUDY    34  34 100 SE8       29.49F FOG     WCI  27
ST JAMES       CLOUDY    34  34 100 SE8       29.50S FOG     WCI  27
FAIRMONT       FOG       34  33  96 SE9       29.49F VSB 1/2 WCI  27
GLENCOE        FOG       35  35 100 E6        29.51S VSB 1/2 WCI  30
FARIBAULT        N/A     36  34  93 E5        29.53S FOG
OWATONNA       CLOUDY    36  34  93 SE8       29.52S FOG
WASECA         FOG       34  34 100 SE10      29.52S VSB 3/4 WCI  26
ALBERT LEA     FOG       36  36 100 SE8       29.51F VSB 1/4
$$
MNZ078>079-086>088-094>096-210600-
   Southeast Minnesota

CITY           SKY/WX    TMP DP  RH WIND       PRES   REMARKS
ROCHESTER      FOG       33  33 100 SE10      29.54S VSB 1/4 WCI  25
RED WING       CLOUDY    36  34  93 SE7       29.56S FOG
STANTON        CLOUDY    36  34  93 E5        29.53S FOG
DODGE CENTER   FOG       34  34 100 SE10      29.53S VSB 1/2 WCI  26
WINONA         FOG       34  34 100 SE5       29.59S VSB 3/4 WCI  30
AUSTIN         FOG       34  32  93 SE6       29.53S VSB 1/2 WCI  29
PRESTON        FOG       33  32  97 E3        29.54F VSB 1/4
$$
ABBREVIATIONS USED IN REMARKS
   TC - TEMPERATURES IN CELSIUS
  WCI - WIND CHILL INDEX
   HX - HEAT INDEX
  VSB - VISIBILITY
$$



USA.gov is the U.S. government's official web portal to all federal, state and local government web resources and services.